Location: Unspecified
(42.9300°N, 71.1866°W)
Time: 21:38:40
(UTC-04:00)

Cosmos 1674 - Visible Passes

Search period start: 17 September 2014 00:00
Search period end: 27 September 2014 00:00
Orbit: 514 x 543 km, 82.5° (Epoch: 17 September)

Date Brightness Start Highest point End Pass type
(mag) Time Alt. Az. Time Alt. Az. Time Alt. Az.
17 Sep 5.2 20:37:13 10° NE 20:37:21 11° NE 20:37:21 11° NE visible
17 Sep 5.8 22:12:00 10° NNW 22:12:38 14° NNW 22:12:38 14° NNW visible
18 Sep 5.2 20:26:23 10° NE 20:26:33 11° NE 20:26:33 11° NE visible
18 Sep 5.6 22:00:56 10° NNW 22:01:50 16° NNW 22:01:50 16° NNW visible
19 Sep 5.1 20:15:34 10° NE 20:15:45 11° NE 20:15:45 11° NE visible
19 Sep 5.3 21:49:52 10° NNW 21:51:02 18° NNW 21:51:02 18° NNW visible
20 Sep 5.1 20:04:49 10° NE 20:04:59 10° NE 20:04:59 10° NE visible
20 Sep 5.1 21:38:48 10° NNW 21:40:16 21° NNW 21:40:16 21° NNW visible
21 Sep 5.1 19:54:09 10° NE 19:54:13 10° NE 19:54:13 10° NE visible
21 Sep 4.8 21:27:43 10° NNW 21:29:30 25° NNW 21:29:30 25° NNW visible
22 Sep 4.5 21:16:38 10° NNW 21:18:46 30° NNW 21:18:46 30° NNW visible
23 Sep 4.1 21:05:33 10° NNW 21:08:03 37° NNW 21:08:03 37° NNW visible
24 Sep 3.6 20:54:27 10° N 20:57:22 47° NNW 20:57:22 47° NNW visible
25 Sep 3.0 20:43:22 10° N 20:46:44 63° NNW 20:46:44 63° NNW visible
26 Sep 2.6 20:32:15 10° N 20:36:08 85° NNE 20:36:08 85° NNE visible
